STARLINK-4174 (53276 NORAD) Tracking and Keplerian Element Data

This shows tracking and keplerian element data for the satellite.

Feedback or suggestion? Click here.




ElementValue
Catalog53276
NameSTARLINK-4174
Epoch Orbit1081
Epoch Day270.25001157
Epoch Year2022
RAAN83.1811
Inclination53.217
Eccentricity0.0001367
Argument of Perigee56.2371
Mean Anonmoly92.0404
Mean Motion15.63002335
Decay Rate-0.01064663
L11 53276U 22086AL 22270.25001157 -.01064663 00000+0 -12642-1 0 9998
L22 53276 53.2170 83.1811 0001367 56.2371 92.0404 15.63002335 10813

Live tracking and technical data element details for STARLINK-4174 (NORAD 53276). STARLINK-4174 can be tracked NOW for your location showing map with azimuth and elevation plus other details from your city location.

Track the satellite on the map from your city or location and see movement details for azimuth, elevation, latitude, longitude, range, height, and movement on the map or in text.







IsCatalogInMostPopularTable: catalog: 53276, numindb: 6
Update: records affected: 1



GetName: 53276 STARLINK-4174

Hit Count: updated at: Fri, 30 Sep 2022 04:08:16 GMT